Haleyville, AL

4:51 PM CST on February 22, 2017 (GMT -0600)
Haleyville

Weather History for K1M4 - March, 2014

Change the Weather History Date:

Thursday, March 6, 2014

  Actual Average (KJFX) Record (KJFX)
Temperature  
Mean Temperature 42 °F -  
Max Temperature 53 °F 63 °F 80 °F (1974)
Min Temperature 32 °F 34 °F 16 °F (1978)
Degree Days  
Heating Degree Days 22    
Moisture  
Dew Point 35 °F    
Average Humidity 83    
Maximum Humidity 100    
Minimum Humidity 50    
Precipitation  
Precipitation 0.02 in - - ()
Sea Level Pressure  
Sea Level Pressure 30.09 in    
Wind  
Wind Speed 6 mph (ENE)    
Max Wind Speed 9 mph    
Max Gust Speed 16 mph    
Visibility 7 miles    
Events Rain    
Averages and records for this station are not official NWS values.
T = Trace of Precipitation, MM = Missing Value Source: NWS Daily Summary

Daily Weather History Graph

Daily Weather History Graph

Search for Another Location

Airport or City:

Trip Planner

Search our weather history database for the weather conditions in past years. The results will help you decide how hot, cold, wet, or windy it might be!

Date:

Astronomy

Mar. 06, 2014 Rise Set
Actual Time 6:12 AM CST 5:50 PM CST
Civil Twilight 5:47 AM CST 6:15 PM CST
Nautical Twilight 5:18 AM CST 6:45 PM CST
Astronomical Twilight 4:49 AM CST 7:14 PM CST
Moon 9:35 AM CST (3/6) 11:40 PM CST (3/6)
Length of Visible Light 12h 28m
Length of Day
11h 37m
Waxing Crescent, 32% of the Moon is Illuminated
Mar 6
Waxing Crescent
Mar 8
First Quarter
Mar 16
Full
Mar 23
Last Quarter
Mar 30
New

Hourly Weather History & Observations

Time (CST) Temp. Windchill Dew Point Humidity Pressure Visibility Wind Dir Wind Speed Gust Speed Precip Events Conditions
12:56 AM 36.0 °F 31.1 °F 34.0 °F 93% 30.14 in 6.0 mi NE 5.8 mph - N/A   Clear
1:56 AM 34.9 °F 30.8 °F 34.0 °F 97% 30.12 in 5.0 mi NNE 4.6 mph - N/A   Clear
2:56 AM 34.0 °F 29.8 °F 32.9 °F 96% 30.10 in 4.0 mi NE 4.6 mph - N/A   Partly Cloudy
3:56 AM 32.9 °F 26.7 °F 32.9 °F 100% 30.09 in 4.0 mi NE 6.9 mph - N/A   Clear
4:56 AM 32.9 °F 28.5 °F 32.9 °F 100% 30.12 in 3.0 mi NNE 4.6 mph - N/A   Partly Cloudy
5:08 AM 33.8 °F 30.8 °F 33.8 °F 100% 30.08 in 2.5 mi NE 3.5 mph - N/A   Partly Cloudy
5:56 AM 32.9 °F 29.8 °F 32.9 °F 100% 30.12 in 2.5 mi NE 3.5 mph - N/A   Clear
6:56 AM 34.0 °F 31.0 °F 34.0 °F 100% 30.12 in 2.5 mi NNE 3.5 mph - N/A   Clear
7:19 AM 35.6 °F 32.8 °F 35.6 °F 100% 30.09 in 3.0 mi Variable 3.5 mph - N/A   Clear
7:56 AM 38.8 °F 36.5 °F 36.9 °F 93% 30.14 in 8.0 mi Variable 3.5 mph - N/A   Clear
8:56 AM 45.0 °F 40.6 °F 36.9 °F 73% 30.14 in 10.0 mi East 8.1 mph - N/A   Scattered Clouds
9:56 AM 48.9 °F - 36.9 °F 63% 30.13 in 10.0 mi East 9.2 mph - N/A   Scattered Clouds
10:56 AM 50.0 °F - 37.9 °F 63% 30.13 in 10.0 mi East 8.1 mph - N/A   Overcast
11:49 AM 51.8 °F - 37.4 °F 58% 30.06 in 10.0 mi East 8.1 mph - N/A   Overcast
11:56 AM 52.9 °F - 36.9 °F 55% 30.09 in 10.0 mi East 9.2 mph - N/A   Overcast
12:56 PM 52.9 °F - 34.9 °F 50% 30.06 in 10.0 mi East 9.2 mph 16.1 mph N/A   Overcast
1:38 PM 53.6 °F - 35.6 °F 51% 30.02 in 10.0 mi East 8.1 mph 16.1 mph N/A   Overcast
1:56 PM 52.0 °F - 34.9 °F 52% 30.05 in 10.0 mi Variable 6.9 mph - N/A   Mostly Cloudy
2:56 PM 50.9 °F - 34.0 °F 52% 30.05 in 10.0 mi NE 6.9 mph - N/A   Overcast
3:56 PM 46.9 °F - 34.9 °F 63% 30.06 in 10.0 mi SE 9.2 mph - N/A   Mostly Cloudy
4:56 PM 39.9 °F 36.7 °F 37.9 °F 93% 30.08 in 4.0 mi SE 4.6 mph - 0.00 in Rain Rain
5:12 PM 39.2 °F 33.6 °F 37.4 °F 93% 30.05 in 4.0 mi ESE 8.1 mph - 0.01 in Rain Light Rain
5:22 PM 39.2 °F 34.2 °F 37.4 °F 93% 30.05 in 5.0 mi ESE 6.9 mph - 0.01 in Rain Light Rain
5:56 PM 38.8 °F 36.5 °F 37.9 °F 97% 30.09 in 7.0 mi ESE 3.5 mph - 0.02 in Rain Light Rain
6:56 PM 38.8 °F 35.4 °F 36.9 °F 93% 30.09 in 10.0 mi ESE 4.6 mph - 0.00 in   Overcast
7:56 PM 37.9 °F 33.5 °F 36.9 °F 96% 30.09 in 9.0 mi ESE 5.8 mph - 0.00 in   Overcast
8:56 PM 36.9 °F - 34.9 °F 93% 30.10 in 10.0 mi Calm Calm - 0.00 in   Overcast
9:56 PM 36.9 °F 31.4 °F 34.9 °F 93% 30.10 in 9.0 mi NNW 6.9 mph - 0.00 in   Overcast
10:56 PM 36.0 °F 33.3 °F 34.0 °F 93% 30.09 in 9.0 mi NW 3.5 mph - N/A   Mostly Cloudy
11:56 PM 34.0 °F - 34.0 °F 100% 30.06 in 3.0 mi Calm Calm - N/A   Partly Cloudy